{"data":{"norad_id":68529,"intl_designator":"2026-068X","name":"STARLINK-37244","alt_names":[],"object_type":"PAYLOAD","status":"ACTIVE","operator":null,"country":"US","launch_date":"2026-03-30","launch_site_code":"AFETR","launch_vehicle":null,"mission":null,"orbit_class":"UNKNOWN","rcs_meters":null,"size_class":null,"mass_kg":null,"dimensions":null,"purposes":["comms"],"wikipedia_slug":null,"has_3d_model":false,"image_url":null,"decayed_at":null,"tle_current":{"epoch":"2026-05-25T03:17:42.277632Z","epoch_age_seconds":63259,"freshness":"FRESH","line1":"1 68529U 26068X   26145.13729488  .00024206  00000+0  72527-3 0  9991","line2":"2 68529  53.1584 133.1720 0001383  65.6959 294.4188 15.34398520  8666","mean_motion":15.3439852,"eccentricity":0.0001383,"inclination_deg":53.1584,"raan_deg":133.172,"arg_perigee_deg":65.6959,"mean_anomaly_deg":294.4188,"bstar":0.00072527,"rev_number":866,"period_min":93.847848601939,"perigee_km":461.76155026895,"apogee_km":463.65372789612,"semimajor_km":6840.8446390825,"source":"CELESTRAK","updated_at":"2026-05-25T13:38:21.957155Z"}}}